GFSSW_sfc_rhum_159.txt.gz
RH
81 82 81 80 81 80 80 81 81 80 78 80 79 80 80 82 84 33 10 18 20 54 50 20 21 19 22 22 26 29 69 70 69 62 72 40 38 31 23 25 26 26 26 28 28
83 81 80 80 80 81 81 79 79 80 81 80 78 80 81 82 32 11 30 41 44 56 14 21 20 20 20 20 22 30 59 45 34 52 63 44 46 33 27 28 31 30 27 28 28
84 85 85 84 83 82 82 82 82 80 80 82 80 80 81 70 23 7 55 56 56 42 13 16 16 17 15 16 23 29 47 35 38 38 41 56 43 33 28 32 29 34 32 30 30
86 87 87 86 84 84 83 83 83 83 81 82 81 80 81 44 18 15 57 60 55 16 9 15 17 16 13 21 23 41 39 35 40 42 40 53 50 37 37 57 24 27 28 29 31
90 89 89 87 86 86 84 83 84 83 83 82 82 82 60 28 16 20 60 47 12 9 9 16 18 14 14 21 26 33 37 37 38 45 54 48 52 42 38 28 24 26 28 29 29
88 90 91 90 87 86 86 84 84 84 83 83 82 85 42 22 14 10 8 11 8 7 7 11 15 11 12 21 32 29 35 38 37 46 54 63 64 45 38 27 25 27 29 29 28
88 90 92 90 87 86 86 86 84 85 84 82 82 53 24 17 12 11 8 8 6 6 7 11 11 10 14 24 25 30 39 37 38 42 61 72 72 55 46 30 28 26 29 28 27
88 89 92 90 88 87 88 89 88 86 83 84 82 40 19 12 11 10 8 8 7 7 7 10 10 9 16 23 27 37 39 77 42 41 52 64 78 80 47 37 33 28 32 30 30
88 89 92 91 90 90 91 90 84 85 81 79 53 29 18 30 12 8 6 8 8 7 8 9 7 10 18 23 28 29 57 47 46 36 45 52 81 58 55 48 42 29 32 32 35
88 89 93 91 90 90 91 89 81 82 66 38 25 22 12 11 9 7 6 6 8 7 10 11 9 13 15 16 53 84 36 28 53 40 38 49 53 55 62 44 64 41 32 33 34
88 91 92 90 90 91 66 36 33 30 24 15 13 12 10 7 7 8 5 6 5 7 12 10 11 14 13 15 21 25 43 24 28 33 36 38 41 48 54 47 49 42 33 30 35
89 91 92 88 89 92 43 15 13 11 14 10 10 10 9 7 9 8 6 8 8 9 9 9 11 9 10 12 17 22 26 24 24 30 33 35 42 44 50 49 44 48 42 33 27
92 91 91 90 90 58 14 13 11 10 14 11 9 9 10 8 9 8 8 8 8 9 8 9 7 7 9 12 16 16 19 19 20 23 27 30 39 38 47 45 42 37 35 31 36
94 93 91 94 57 16 10 12 10 10 16 13 11 9 9 9 10 7 7 7 6 8 7 7 6 8 9 10 10 14 12 16 18 23 65 49 85 45 35 40 41 37 34 31 36
93 92 90 95 32 17 13 10 10 12 22 13 9 7 8 10 9 8 6 7 8 6 6 7 6 7 8 7 9 12 14 13 14 18 40 49 54 86 38 39 37 32 29 30 31
92 90 91 46 33 18 14 10 11 18 19 12 10 12 11 9 8 8 7 7 6 7 6 6 6 5 5 4 6 8 12 15 15 15 27 17 19 41 32 27 31 29 27 28 38
91 88 80 32 17 15 12 12 15 15 11 13 12 10 10 10 9 9 9 10 10 12 12 8 8 6 6 6 5 8 12 19 20 18 22 22 22 23 26 19 20 25 28 28 26
90 89 65 27 19 17 14 14 21 11 8 10 10 9 11 9 10 10 11 11 9 8 8 10 10 8 6 6 7 8 10 14 40 32 31 22 23 20 18 16 20 24 27 34 34
90 22 20 19 20 20 16 18 17 13 8 8 10 11 11 9 9 10 11 10 9 8 11 9 10 6 6 6 8 8 12 8 18 19 23 31 18 18 17 16 21 24 29 30 32
44 20 17 16 18 20 19 23 13 9 9 9 14 12 12 10 11 11 11 9 8 6 6 10 13 7 6 6 7 10 9 12 12 33 33 19 18 21 22 20 19 23 26 26 31
40 20 18 15 19 19 20 15 12 9 10 11 11 12 12 11 11 11 11 9 8 7 7 8 10 14 9 9 9 10 11 11 10 12 18 20 20 14 17 20 20 22 23 25 29
26 22 18 16 20 16 16 13 33 11 10 11 10 12 12 11 12 12 11 10 7 7 10 8 8 15 12 8 7 10 10 9 12 20 14 14 21 15 15 16 18 25 27 29 30
30 21 16 16 21 16 14 12 12 13 11 12 11 9 10 12 17 13 11 8 8 8 10 9 11 15 19 12 10 11 10 10 10 10 29 24 27 20 24 26 26 31 32 35 35
31 23 21 21 18 21 20 17 17 11 12 11 11 9 10 14 13 16 13 9 10 9 43 21 11 14 16 23 20 15 11 10 10 13 14 16 26 26 27 28 29 30 35 35 37
28 24 26 25 21 23 22 23 21 19 13 14 14 13 12 14 15 16 14 12 10 30 14 10 18 15 11 14 14 12 11 11 14 13 16 16 18 24 25 24 24 28 33 36 39
32 33 26 26 25 27 31 25 23 20 18 21 20 16 15 18 16 17 13 14 15 12 16 11 19 17 17 11 13 12 11 12 12 14 14 13 16 13 20 20 24 28 35 37 38
30 29 34 36 24 22 21 21 21 21 23 20 20 22 22 18 16 16 15 15 15 19 19 17 16 20 23 18 14 15 12 12 12 12 13 17 17 16 25 23 26 30 34 37 38

GFSSW_sfc_rhum_162.txt.gz
RH
82 83 82 80 80 80 81 81 79 79 80 82 80 80 82 83 84 37 12 19 21 58 51 18 22 21 20 26 24 25 93 93 70 73 63 52 33 30 22 23 27 28 27 28 26
83 85 84 83 82 81 80 80 81 83 80 80 83 81 82 83 41 17 29 49 49 53 14 21 23 18 22 22 23 44 85 82 42 42 51 60 84 42 26 26 30 29 27 26 25
88 86 85 83 81 81 81 83 83 82 83 81 82 81 82 73 29 9 54 52 52 42 13 14 17 16 17 16 25 36 75 38 37 38 38 60 77 66 35 33 31 33 32 28 28
86 88 87 86 85 85 84 83 82 83 84 84 82 82 83 48 26 12 59 57 56 16 13 13 17 18 16 18 26 52 53 34 39 37 37 50 76 63 51 45 30 27 28 28 28
87 88 89 89 87 86 86 84 83 84 84 83 82 82 63 34 22 15 61 47 14 11 14 13 18 16 14 17 26 51 33 36 38 40 43 44 51 60 39 40 39 25 27 28 27
87 88 90 92 90 87 86 88 86 85 85 83 81 84 45 28 11 9 7 10 9 8 9 10 16 12 12 16 32 35 32 33 41 42 47 47 51 53 47 35 28 27 28 27 28
86 88 90 92 90 86 87 88 87 86 84 82 79 54 31 21 11 8 6 8 8 6 7 7 11 12 11 35 26 27 43 71 45 45 52 47 52 61 67 62 28 28 29 31 29
86 88 89 92 91 90 89 89 88 86 85 81 80 43 31 10 9 10 7 6 6 6 6 7 11 12 11 27 26 37 75 70 43 44 51 47 65 59 79 69 53 32 30 35 27
85 88 90 92 91 90 90 90 86 83 83 77 56 36 20 26 10 8 7 8 6 7 7 7 10 12 10 29 38 68 60 68 59 47 45 43 76 71 86 81 64 35 27 33 30
90 90 91 92 91 91 91 88 78 78 62 38 28 27 18 12 9 8 5 6 7 7 8 10 12 13 11 15 55 86 67 81 72 75 48 50 58 59 54 53 58 60 45 32 35
95 94 92 90 89 90 64 36 35 31 27 17 16 16 10 7 7 7 6 6 7 7 10 10 14 14 11 13 28 38 54 49 73 40 48 52 50 55 47 45 61 64 56 31 35
93 95 93 90 90 89 56 18 12 10 14 14 14 10 8 6 8 7 5 7 8 9 7 10 13 10 9 11 34 34 44 40 33 27 48 54 61 48 46 52 50 53 52 36 30
91 93 93 89 87 64 16 13 9 9 14 12 9 9 9 7 7 8 6 7 7 8 8 10 8 7 8 9 14 28 26 25 20 23 29 72 73 53 45 43 52 38 48 38 37
91 92 92 96 53 20 14 8 8 8 18 12 10 8 8 8 9 6 6 7 8 8 8 8 6 6 8 10 10 13 12 18 18 19 32 29 73 94 84 61 44 39 31 54 39
91 91 92 90 36 21 13 9 8 10 26 10 10 6 7 10 9 8 6 7 9 7 7 8 7 6 8 8 8 11 12 16 15 16 18 31 36 76 83 81 53 42 37 37 31
91 90 93 44 44 24 14 11 9 18 21 12 10 9 10 9 9 7 7 6 7 7 6 6 4 5 5 6 6 7 11 14 15 15 20 17 30 75 77 63 82 44 35 36 30
91 89 85 38 22 14 12 11 15 18 8 11 12 10 10 11 10 9 9 9 10 12 11 8 6 6 4 5 5 5 8 15 21 20 20 30 29 50 53 45 68 70 75 41 35
89 89 61 32 18 15 16 15 22 12 10 6 9 10 11 10 10 9 10 10 8 8 9 11 10 6 6 7 7 6 7 13 30 41 48 36 30 35 30 18 52 58 30 30 33
88 25 25 20 19 17 20 20 18 14 9 8 8 11 11 9 9 10 11 11 9 8 12 11 10 6 6 6 6 7 9 7 12 34 70 56 29 21 17 18 18 23 30 32 30
53 29 18 14 14 18 24 28 14 10 9 8 11 11 12 10 10 10 11 9 9 7 7 9 12 7 6 5 6 8 6 10 12 28 52 61 52 31 25 21 21 25 24 27 30
44 27 16 13 15 21 26 20 14 10 9 11 12 12 11 11 10 10 10 9 8 7 7 7 10 15 9 8 8 8 12 11 10 14 24 36 44 25 23 23 21 20 21 24 27
30 25 16 13 22 20 21 17 25 12 9 10 10 11 12 11 12 12 13 10 8 7 8 7 9 15 14 7 6 7 11 11 14 23 16 16 33 15 17 18 17 22 23 27 26
37 24 13 15 23 19 15 13 12 12 12 12 12 11 10 12 16 12 11 9 8 9 10 9 11 16 15 15 9 9 9 10 9 10 22 25 30 16 18 19 23 32 30 36 34
36 24 18 18 19 20 20 20 16 10 11 11 12 11 12 12 11 15 13 10 8 9 41 20 10 14 15 30 30 22 11 10 10 14 18 30 33 39 25 26 26 32 33 36 36
37 24 21 27 21 22 21 21 20 20 14 11 16 14 14 16 12 13 12 12 10 29 14 11 16 14 12 17 26 28 19 15 11 12 14 28 25 27 28 27 25 29 31 35 38
36 34 29 31 26 24 28 26 20 19 18 18 17 15 14 17 16 15 11 14 15 13 13 10 22 15 16 12 15 25 24 26 10 12 12 12 20 21 25 30 27 31 34 37 39
31 31 35 41 26 22 20 20 18 18 17 17 19 21 21 16 17 16 16 15 15 17 16 18 21 23 22 14 28 65 37 16 12 13 14 18 17 23 24 24 26 30 32 36 38

GFSSW_sfc_rhum_165.txt.gz
RH
84 83 82 82 82 82 81 82 82 83 84 83 83 85 86 87 88 61 24 20 27 62 57 22 23 30 30 32 36 86 92 92 86 73 73 73 64 44 25 30 31 31 35 39 40
84 85 84 83 81 83 84 84 82 82 84 85 83 84 85 87 62 29 30 56 58 60 17 19 26 27 33 29 35 78 93 85 60 57 68 71 74 66 53 33 35 35 32 32 40
85 86 85 84 85 85 85 85 86 85 84 85 85 84 85 86 53 17 44 61 56 49 14 15 17 20 26 21 31 62 77 62 49 50 59 69 64 70 65 42 37 40 36 32 34
87 86 87 86 87 87 86 87 87 86 85 85 84 83 86 73 44 16 56 56 58 19 14 17 18 23 28 24 34 58 46 39 46 51 54 60 69 79 58 48 33 33 32 32 34
86 87 88 89 89 88 88 88 89 88 86 85 83 83 82 62 31 28 60 54 27 15 16 19 19 20 26 28 44 60 76 41 41 41 57 58 66 72 54 38 32 30 31 34 34
86 87 88 89 92 91 90 90 89 88 86 84 82 82 81 44 13 20 22 19 13 13 13 14 16 15 18 22 41 41 48 43 45 52 60 56 66 55 56 59 46 32 35 35 32
84 85 87 91 91 90 90 90 88 88 86 82 80 66 51 36 10 12 10 13 13 11 12 10 10 16 17 22 40 47 54 53 57 49 55 56 74 74 77 55 45 33 34 34 35
89 91 92 92 91 90 91 90 89 86 85 82 79 65 52 19 18 9 8 10 10 11 9 9 10 17 20 27 46 72 72 87 84 60 55 64 78 78 77 64 59 53 37 34 36
95 94 95 94 92 91 91 90 86 80 83 80 85 69 36 25 12 11 12 10 9 9 9 7 13 18 17 21 69 72 83 67 77 82 58 59 76 73 67 59 65 61 47 40 39
92 92 93 94 92 91 89 88 78 84 74 52 36 45 32 22 15 10 10 9 10 10 11 12 16 24 24 25 47 82 71 56 75 79 65 55 61 75 56 66 70 69 51 48 42
90 92 92 92 91 91 82 53 62 54 44 34 29 22 16 16 10 11 6 8 10 13 15 13 20 29 22 17 37 49 54 56 60 55 63 58 59 66 66 67 73 74 57 50 44
89 91 92 91 90 89 90 36 23 16 22 28 24 18 14 9 10 9 7 10 11 16 12 14 20 17 14 22 28 39 52 53 55 53 76 72 81 71 60 65 69 71 56 63 48
89 92 92 91 88 84 38 20 13 12 22 15 12 18 18 9 9 10 7 8 12 14 12 14 13 12 11 14 37 44 45 39 40 56 70 72 89 90 68 57 56 61 46 50 46
91 91 91 94 62 37 29 20 14 12 31 19 16 12 14 11 12 7 6 8 10 11 10 12 10 9 10 10 22 28 23 26 26 45 67 58 97 90 82 66 56 59 49 54 51
92 91 92 94 66 43 23 17 13 15 44 14 13 9 10 13 13 10 7 10 12 12 11 12 10 10 10 10 10 14 11 19 20 29 31 57 74 85 85 68 66 66 53 43 46
92 90 90 58 71 45 29 23 19 32 35 14 11 12 12 12 11 10 10 9 9 11 10 9 6 8 8 7 8 8 10 16 25 31 41 31 51 92 94 73 76 65 57 62 50
92 88 89 55 41 22 23 24 32 33 14 15 15 11 12 14 13 11 12 14 16 22 18 12 9 7 8 9 8 9 13 28 35 38 49 44 51 68 58 54 62 60 62 57 51
90 88 78 56 42 35 35 36 39 17 13 10 13 12 14 12 13 12 14 15 13 14 15 18 18 9 8 9 10 10 10 21 34 66 51 38 72 67 39 48 51 46 40 54 68
87 45 43 36 41 30 40 43 30 20 13 13 12 16 16 12 13 13 15 14 11 11 18 19 16 9 7 8 9 12 14 9 13 70 65 60 52 37 46 50 55 56 56 56 56
76 52 37 22 26 29 46 46 25 15 14 14 18 15 17 14 14 14 16 12 12 10 10 16 21 10 8 8 8 11 12 20 19 59 65 64 62 56 41 56 54 47 50 53 54
66 48 23 17 20 39 45 34 22 15 14 15 15 16 16 16 14 14 13 11 10 10 12 13 18 16 18 13 12 12 17 25 23 25 49 76 72 52 56 66 48 42 39 43 44
49 50 20 18 40 38 34 27 32 18 15 15 14 15 16 15 17 17 16 14 9 10 13 12 14 26 20 15 9 11 14 19 34 30 33 43 60 38 36 40 31 35 35 42 43
64 44 22 19 40 32 25 20 17 16 16 15 15 14 15 17 23 18 14 11 14 13 20 16 19 25 23 21 17 14 12 17 20 23 29 42 47 36 32 44 42 52 51 51 49
59 49 36 32 27 29 31 28 22 16 16 14 16 16 18 20 19 21 16 12 11 12 38 26 19 26 27 31 32 34 30 31 33 35 35 52 48 51 42 46 45 53 53 53 57
57 44 36 44 39 37 31 31 30 28 21 20 25 18 20 27 24 23 17 14 13 31 22 17 28 31 21 28 28 25 19 20 34 30 36 41 44 48 40 42 44 47 50 52 59
55 51 45 48 38 36 34 32 25 21 21 21 25 20 22 31 28 26 21 26 32 26 24 18 31 35 30 19 20 24 26 25 28 26 32 30 32 37 40 41 42 42 50 54 60
53 48 51 54 40 35 33 28 24 22 25 21 24 29 29 27 24 24 24 24 26 33 31 35 35 45 39 25 24 45 30 30 29 35 44 45 37 38 42 37 45 48 49 54 56

GFSSW_sfc_rhum_168.txt.gz
RH
83 83 83 83 81 84 85 85 85 84 84 85 85 85 87 90 88 75 27 22 29 63 64 23 34 31 34 44 70 83 97 94 84 86 77 66 81 53 36 44 40 38 55 59 55
84 84 85 85 86 85 85 83 84 86 86 86 87 86 87 90 76 42 37 51 61 67 20 21 24 28 44 42 70 89 92 77 63 62 68 61 71 66 42 40 42 53 54 54 51
85 85 86 87 87 86 86 85 85 86 86 86 87 86 87 91 61 18 53 52 68 62 15 16 19 23 29 35 59 64 80 68 58 54 59 74 67 66 67 47 47 61 59 53 52
85 87 86 88 87 88 88 87 86 86 87 87 86 85 88 87 38 19 66 59 66 25 15 19 23 28 30 33 50 62 50 49 57 60 65 68 65 67 59 48 38 49 50 51 54
85 85 86 88 90 90 90 90 88 87 87 86 85 84 90 74 29 30 62 61 35 17 18 21 26 28 31 42 43 61 66 48 52 53 62 57 66 63 62 49 33 38 46 51 52
87 90 92 93 93 91 91 91 89 89 87 85 83 82 82 43 24 34 25 32 18 16 17 18 20 20 22 48 58 54 63 52 55 59 62 63 67 56 64 58 36 33 38 40 47
94 92 91 92 93 91 91 91 88 88 87 84 82 70 68 32 18 26 17 17 18 16 15 14 14 17 22 67 51 52 60 67 71 68 59 63 81 70 73 67 52 35 39 38 38
90 90 91 92 93 92 92 91 88 86 86 83 80 79 50 27 23 14 17 16 14 15 14 13 12 19 26 55 55 66 77 81 72 63 58 61 83 75 80 67 65 41 38 40 44
89 89 91 93 92 92 92 91 86 81 84 82 89 82 48 32 23 13 11 11 14 13 14 9 15 21 22 49 78 77 85 74 85 75 62 62 78 78 76 67 70 61 48 40 46
87 88 91 92 92 92 92 88 82 85 78 61 47 45 35 26 18 14 14 11 13 13 13 16 19 26 30 32 42 82 79 64 79 72 63 66 71 73 63 65 77 73 56 50 52
90 90 91 91 90 92 94 61 57 57 67 33 32 28 21 23 15 15 11 10 13 15 18 16 21 24 23 26 24 37 60 58 64 63 68 66 69 62 63 66 77 82 67 60 51
93 92 92 90 91 91 94 42 31 32 29 36 29 26 17 20 14 12 8 11 14 18 18 17 20 16 16 20 38 51 54 58 60 58 66 76 86 72 62 64 69 77 80 67 56
93 93 93 91 91 90 56 32 20 22 27 20 29 29 26 22 15 12 9 11 14 17 17 18 14 12 13 17 25 49 50 52 52 61 71 75 79 83 70 64 69 65 66 62 60
92 92 93 95 63 63 42 32 29 23 36 26 22 16 21 12 14 9 9 9 12 15 17 16 11 11 11 16 40 60 37 36 53 70 85 67 90 86 75 69 58 68 67 65 57
91 92 94 94 87 62 31 34 32 22 37 17 20 13 17 16 15 11 8 11 12 13 13 13 13 14 14 12 26 20 16 35 43 63 76 86 90 82 81 80 71 58 55 50 49
92 90 89 82 95 66 50 36 25 32 41 20 15 17 17 17 14 12 9 13 12 14 16 14 10 10 10 9 9 10 13 14 31 40 46 52 79 81 90 60 65 57 55 52 50
90 89 90 67 47 44 44 32 29 39 18 19 20 16 17 17 16 14 14 15 17 29 23 16 13 12 8 12 10 12 16 23 27 34 47 53 55 64 53 52 53 60 56 60 55
88 92 92 76 80 56 44 32 41 22 20 14 17 17 18 17 17 14 17 18 16 18 22 22 20 14 9 10 11 12 14 21 25 61 55 46 65 56 45 42 49 52 52 56 64
90 82 75 62 64 55 44 54 34 26 19 21 19 22 21 16 18 19 18 16 14 15 18 23 19 13 10 10 9 13 14 13 46 72 60 54 58 45 47 55 56 57 57 61 62
97 86 63 43 51 44 51 62 38 25 21 21 28 23 24 20 20 22 20 14 13 13 14 17 20 15 10 10 13 11 12 20 27 54 64 65 62 54 66 65 62 58 52 59 62
83 60 39 39 37 45 56 53 31 24 22 27 26 26 22 21 20 24 19 15 12 12 13 16 21 16 18 14 13 13 16 27 21 36 54 69 71 54 60 71 63 60 53 52 56
93 66 37 30 43 56 55 39 36 25 23 23 22 21 23 20 23 22 20 18 13 13 16 15 21 22 15 16 10 10 11 18 29 29 39 56 51 46 52 46 50 54 54 56 57
96 79 40 31 49 54 43 31 27 26 26 24 20 19 21 25 26 21 19 14 13 16 17 14 20 22 19 18 21 16 16 27 30 35 30 44 53 50 52 50 51 52 56 62 56
93 79 53 49 51 60 54 44 36 26 27 25 26 23 24 25 24 24 21 16 14 15 46 32 23 21 22 21 27 32 27 36 42 42 50 60 57 52 46 47 52 58 55 56 68
91 80 70 77 62 58 61 40 34 33 27 25 26 26 28 30 32 29 24 22 21 39 29 22 24 28 26 21 32 28 26 25 37 42 43 36 48 57 49 49 50 51 55 64 75
84 85 78 76 66 55 56 46 37 34 36 32 35 32 35 44 43 43 41 41 36 29 31 34 28 31 27 28 28 25 27 27 31 38 41 40 44 42 45 47 51 49 58 66 73
85 79 84 81 69 66 58 49 41 41 37 32 31 38 40 36 32 32 37 38 36 47 37 44 45 47 50 38 33 46 29 27 28 40 37 39 37 38 49 46 51 54 55 66 70

GFSSW_sfc_rhum_171.txt.gz
RH
83 84 84 84 85 85 85 84 83 83 85 84 84 86 88 90 90 77 26 20 29 65 59 51 42 40 40 71 68 75 95 92 84 88 78 67 73 52 42 51 49 48 65 64 64
84 84 85 85 86 86 84 84 85 85 85 85 85 87 88 90 81 44 38 48 59 63 23 24 28 33 45 76 80 90 89 79 60 67 68 65 71 65 51 54 63 68 64 62 62
84 84 83 85 84 86 86 85 85 85 84 86 87 88 88 93 64 14 52 58 59 64 18 18 19 20 33 67 78 77 77 64 59 57 58 82 82 60 62 55 61 72 71 64 63
82 88 91 92 90 88 88 88 86 86 86 86 87 87 88 95 16 23 59 57 72 40 16 20 23 28 31 44 61 68 61 58 62 56 67 81 70 67 65 56 53 60 62 62 63
92 91 90 89 89 89 89 90 88 86 86 86 86 86 91 68 25 38 70 60 52 18 15 21 29 31 27 52 49 63 57 56 59 60 71 65 70 64 55 46 50 55 58 60 60
88 89 89 89 89 88 90 93 89 89 87 86 85 83 80 32 23 41 45 34 19 16 19 22 24 23 34 56 66 60 62 60 62 60 61 68 68 57 68 53 52 55 60 58 57
88 88 88 89 89 90 91 92 90 88 88 86 83 73 64 26 21 29 22 20 21 15 16 18 17 17 53 66 53 57 66 68 69 69 68 66 70 72 77 72 50 54 57 58 57
86 86 88 90 92 92 92 92 91 86 88 85 81 82 46 28 28 18 19 18 16 20 17 15 15 18 49 59 56 68 73 79 74 77 74 70 82 77 80 75 59 54 53 53 55
92 91 91 91 92 93 93 92 86 84 86 82 89 81 44 38 28 15 14 13 16 18 17 11 16 22 45 69 78 81 81 78 76 77 70 67 88 79 81 74 70 68 66 46 51
94 94 93 92 92 93 94 89 86 88 77 66 53 49 29 24 22 16 14 12 13 14 15 16 22 27 33 37 43 77 85 72 79 75 68 72 74 80 78 75 73 74 68 52 57
92 92 93 93 92 94 93 73 51 56 74 31 31 22 22 25 20 20 15 14 16 16 20 21 22 25 22 26 29 40 71 66 70 66 73 76 71 75 70 68 80 77 78 65 55
92 92 92 93 93 94 93 31 32 26 31 30 35 29 22 22 22 16 11 14 16 19 20 20 21 17 18 19 24 48 58 65 68 65 70 79 80 78 69 70 68 68 70 72 63
93 93 93 94 94 88 58 37 30 45 39 25 31 33 30 24 25 17 11 12 16 18 19 22 15 13 14 14 21 56 58 58 68 67 70 74 78 76 76 63 64 66 61 57 70
93 93 93 93 67 73 50 48 42 37 34 24 26 26 25 22 26 12 9 10 16 15 18 20 16 14 14 15 21 32 36 41 62 77 82 69 92 81 77 77 66 61 67 60 67
92 92 93 92 90 60 34 54 41 24 24 15 23 17 22 17 16 12 10 11 13 15 16 17 15 14 15 13 28 28 35 46 61 70 84 90 92 78 82 74 73 65 52 62 61
92 91 91 90 97 70 59 51 25 30 29 20 18 20 23 24 20 12 11 11 12 14 19 15 15 13 14 12 24 21 14 23 47 66 64 54 84 73 82 68 66 61 58 54 58
91 91 89 72 42 54 53 26 26 37 18 18 24 21 25 23 22 14 13 14 18 23 26 20 15 14 10 14 14 13 19 25 30 40 57 64 81 66 52 60 56 58 60 55 51
93 94 93 81 86 60 39 28 39 21 24 20 21 20 20 19 20 17 17 18 16 21 25 23 20 15 12 13 13 14 15 22 23 33 56 58 66 46 45 43 51 52 51 54 62
93 89 90 74 75 64 35 39 27 28 23 24 24 25 26 21 22 20 20 17 17 17 19 25 20 14 12 11 9 14 16 16 51 75 62 51 50 46 48 53 62 60 63 66 59
99 92 69 63 61 46 45 56 46 28 26 28 35 30 33 26 24 22 21 17 16 15 18 19 20 16 14 12 13 12 12 16 30 43 55 52 66 52 41 54 65 64 60 69 63
84 51 43 59 43 44 49 55 41 28 27 31 33 33 29 28 24 24 20 17 15 14 15 21 22 18 18 16 14 15 19 26 24 34 30 49 63 54 45 58 57 61 56 64 71
90 58 46 39 44 68 59 48 40 30 28 28 30 30 29 22 27 26 22 17 16 16 18 18 23 24 19 17 16 13 15 23 24 26 53 54 48 39 50 55 55 54 64 60 58
90 92 54 35 55 58 54 42 34 34 33 32 27 24 23 24 28 24 22 16 18 19 25 18 24 27 22 19 22 16 17 22 32 39 45 53 46 48 61 54 58 61 60 60 62
91 70 63 63 65 72 67 53 41 28 32 32 28 30 31 28 29 29 26 19 19 24 63 30 23 22 22 20 23 33 31 37 36 46 54 60 57 54 52 53 51 52 58 63 76
91 87 81 80 68 72 72 52 42 45 35 35 33 38 41 48 46 46 42 36 28 40 31 25 28 24 20 17 28 27 33 34 36 39 38 40 56 47 50 52 45 57 62 68 85
93 96 93 93 80 64 66 61 51 50 46 44 46 37 38 46 45 44 47 50 45 33 34 38 36 35 28 25 31 30 27 29 36 38 42 42 41 43 51 56 60 59 59 71 82
97 91 92 88 83 73 75 68 55 56 47 39 41 42 42 41 39 36 36 38 40 56 41 42 47 49 41 35 34 42 31 32 38 41 40 46 36 48 60 58 57 59 58 72 77

GFSSW_sfc_rhum_174.txt.gz
RH
82 85 83 84 84 84 84 84 83 83 82 84 84 83 87 90 88 80 26 22 26 66 65 58 47 46 53 73 68 76 88 85 80 82 81 69 74 54 49 54 55 56 73 72 70
82 82 84 84 85 85 85 84 84 84 84 84 83 86 89 90 82 43 36 52 70 66 50 46 46 46 58 89 82 81 87 74 61 69 72 71 73 65 65 58 69 75 72 70 70
88 89 87 85 85 86 86 86 85 84 84 85 86 87 89 93 58 12 50 60 66 55 20 23 30 38 48 90 85 82 81 67 61 61 61 77 70 60 60 60 68 72 80 74 74
88 87 87 86 86 87 88 87 86 86 84 84 86 88 88 95 8 22 60 64 66 44 15 18 23 32 37 76 75 82 65 62 64 63 74 74 71 68 64 67 55 64 70 71 74
86 87 87 87 87 87 88 88 87 87 86 86 86 86 93 60 23 32 70 69 49 20 14 24 28 30 32 59 63 71 61 62 63 63 72 71 74 67 64 55 56 62 66 71 72
84 86 86 86 87 87 90 90 88 88 87 86 85 84 82 24 22 49 56 43 28 16 17 23 26 23 60 63 68 62 68 67 64 67 69 75 75 64 71 56 58 62 70 70 68
89 90 90 91 89 88 89 91 89 89 88 86 83 77 56 22 28 38 32 30 20 15 19 20 24 17 61 71 55 62 74 76 74 67 68 67 77 78 79 64 62 63 67 66 64
92 92 92 91 89 90 92 91 91 86 88 85 82 84 39 28 32 23 21 17 18 20 17 19 18 21 64 59 59 71 71 81 78 76 74 68 84 83 77 71 70 61 64 63 65
92 92 92 92 91 93 94 92 87 87 85 82 87 78 40 41 26 18 16 15 16 20 21 12 19 44 55 68 68 80 81 79 71 77 71 74 84 81 80 75 75 59 60 62 64
93 93 92 92 90 91 92 88 88 87 79 71 58 48 27 23 30 16 16 14 15 16 17 18 24 31 42 54 51 59 76 73 74 78 75 78 76 87 87 82 78 62 67 68 58
92 93 92 90 90 91 92 90 52 52 78 36 34 23 20 25 19 23 15 14 17 17 21 23 23 28 28 38 33 48 72 63 69 70 76 83 76 76 83 81 82 83 77 72 57
93 93 90 90 92 92 92 29 36 40 44 34 38 33 26 25 23 22 15 19 19 23 21 21 24 20 20 23 25 30 50 62 70 67 76 83 82 73 77 75 74 76 74 72 65
93 92 88 89 93 91 65 41 40 41 45 28 32 35 30 25 26 25 16 16 19 22 22 24 19 15 16 18 21 47 60 66 60 71 72 81 84 83 79 70 68 70 66 67 70
91 89 88 90 73 75 52 54 51 44 28 20 30 27 31 27 26 19 14 12 18 19 20 21 18 16 18 17 19 26 37 43 65 81 82 71 83 78 84 82 68 58 63 64 67
91 87 89 88 92 56 45 60 56 25 25 15 26 22 29 22 21 21 11 12 15 16 18 18 16 18 18 15 18 17 26 42 68 78 87 90 87 79 85 84 80 66 57 59 57
91 89 88 93 98 74 63 55 26 23 25 22 22 25 26 26 21 14 13 12 13 16 20 17 16 14 14 14 20 22 30 27 50 80 86 74 79 74 84 70 66 67 62 54 60
91 92 90 72 43 66 62 24 26 32 18 20 26 26 30 27 26 16 15 16 17 23 25 20 17 16 13 16 18 16 25 34 57 90 85 88 89 68 51 58 55 60 64 54 54
92 95 94 82 90 72 37 26 34 19 26 23 26 26 27 22 25 17 18 20 18 22 26 25 22 17 14 14 16 18 18 24 26 35 44 87 84 49 43 48 54 52 50 56 55
93 92 97 80 84 72 32 41 34 25 26 28 28 29 29 22 23 23 21 20 17 17 20 28 22 16 13 13 11 16 18 18 47 76 64 60 46 37 43 62 61 58 64 62 57
99 88 60 72 71 45 38 52 42 33 30 31 39 32 38 32 29 25 24 20 18 16 15 19 21 18 16 13 14 13 13 17 31 43 53 40 63 50 32 63 68 62 65 66 61
76 51 51 66 53 41 47 50 44 34 30 37 38 40 38 33 29 27 24 20 17 19 16 19 19 18 21 18 16 17 20 27 24 30 29 33 33 51 47 54 70 66 63 72 67
81 54 49 46 46 74 59 55 44 35 34 35 37 35 35 31 28 26 24 22 18 16 19 19 22 20 19 20 17 16 17 23 22 26 46 38 41 45 48 51 55 64 63 70 71
92 89 58 42 60 69 61 49 42 36 38 36 35 33 32 31 31 26 25 20 23 23 22 20 24 28 22 23 25 18 18 23 30 40 60 49 37 46 58 61 60 65 68 66 69
89 67 66 66 76 73 69 57 46 35 38 40 37 38 42 36 40 36 38 27 30 30 59 32 25 24 24 23 22 30 23 29 28 36 40 52 39 43 48 55 56 61 70 66 70
92 92 88 86 74 78 75 56 51 53 46 43 44 44 51 52 46 48 43 37 33 44 40 24 29 23 19 20 22 28 30 35 34 35 36 37 53 43 45 50 54 54 63 75 88
96 96 95 93 87 75 77 78 61 62 58 51 53 46 47 56 54 52 44 49 42 36 41 39 39 36 28 27 23 32 30 35 35 40 44 46 52 42 53 56 59 57 66 80 88
98 95 96 87 90 78 81 79 65 63 54 48 49 54 48 50 51 48 46 40 41 46 44 48 50 52 44 52 46 47 32 35 40 41 38 42 35 45 59 56 54 63 65 77 82